Notices

What's New in latest Release from April 7th, 2021:

- Updated Glossary, including Speed of Maximum Gust, and Total Hourly Precipitation

- Updated national and regional climate services offices contacts and prices information

- Addition of station inventory lists for 1981-2010, 1971-2000, and 1961-1990 Normals.

If you haven't already, please take our survey and provide feedback about our website: https://eccc.sondage-survey.ca/f/LanguageSelection.aspx?s=442ca660-fcf1-47c0-95a9-59707d6fd709

Hourly Data Report for January 21, 2021

EDMUNDSTON
NEW BRUNSWICK
Current Station Operator: ECCC - MSC

47°25'00.000" N
68°19'28.040" W
154.20 m
8101303
71590
ERM

Download Data

Hourly Data (January 2021)
Hourly Data Report for January 21, 2021
TIME
LST
Temp Definition
°C
Dew Point Definition
°C
Rel Hum Definition
%
Precip. Amount Definition
mm

Wind Dir Definition
10's deg

Wind Spd Definition
km/h
Visibility Definition
km
Stn Press Definition
kPa
Hmdx Definition


Wind Chill Definition


Weather Definition


00:00 -24.3 -26.5 81 0.0 30 3   99.20   -27 LegendNANA
01:00 -24.5 -26.8 81 0.0 31 4   99.17   -28 LegendNANA
02:00 -25.0 -27.3 82 0.0 34 4   99.15   -29 LegendNANA
03:00 -26.0 -28.5 79 0.0 32 1   99.12   -27 LegendNANA
04:00 -26.5 -29.1 79 0.0 32 4   99.07   -31 LegendNANA
05:00 -27.0 -29.5 79 0.0 28 2   99.11   -29 LegendNANA
06:00 -27.6 -30.3 78 0.0 33 4   99.09   -32 LegendNANA
07:00 -27.6 -30.3 78 0.0 28 4   99.06   -32 LegendNANA
08:00 -27.8 -30.5 77 0.0 34 3   99.01   -31 LegendNANA
09:00 -26.8 -29.5 78 0.2   0   98.96     LegendNANA
10:00 -23.4 -26.3 77 0.0 30 1   98.92   -24 LegendNANA
11:00 -18.4 -21.5 77 0.0 0 1   98.95   -19 LegendNANA
12:00 -15.7 -18.8 77 0.0   0   98.84     LegendNANA
13:00 -12.1 -17.9 62 0.0 16 1   98.70   -13 LegendNANA
14:00 -11.8 -17.0 65 0.0 12 6   98.63   -16 LegendNANA
15:00 -11.7 -16.9 65 0.0 11 6   98.63   -15 LegendNANA
16:00 -11.6 -16.5 67 0.0 12 5   98.60   -15 LegendNANA
17:00 -11.9 -15.4 75 0.0 15 5   98.57   -15 LegendNANA
18:00 -12.9 -15.4 82 0.0 14 4   98.55   -16 LegendNANA
19:00 -14.4 -16.5 84 0.0 10 4   98.54   -17 LegendNANA
20:00 -17.0 -19.0 84 0.0 36 2   98.58   -19 LegendNANA
21:00 -17.4 -19.5 83 0.0 31 3   98.57   -20 LegendNANA
22:00 -19.1 -21.3 83 0.0 30 2   98.56   -21 LegendNANA
23:00 -21.2 -23.7 80 0.0 34 3   98.53   -24 LegendNANA

Notes on Data Quality.

Legend

  • E = Estimated
  • M = Missing
  • NA = Not Available*
  • [empty] = Indicates an unobserved value
Date modified: